Weather History for K3T5 - December, 2013

Change the Weather History Date:

Wednesday, December 18, 2013

  Actual Average (KAUS) Record (KAUS)
Temperature  
Mean Temperature 54 °F 50 °F  
Max Temperature 72 °F 63 °F 81 °F (2012)
Min Temperature 37 °F 37 °F 25 °F (1997)
Degree Days  
Heating Degree Days 10 15  
Month to date heating degree days 255  
Since 1 July heating degree days 540  
Cooling Degree Days 0 0  
Month to date cooling degree days 5  
Year to date cooling degree days 2746  
Growing Degree Days 4 (Base 50)    
Moisture  
Dew Point 42 °F    
Average Humidity 65    
Maximum Humidity 83    
Minimum Humidity 31    
Precipitation  
Precipitation 0.00 in 0.06 in 1.71 in (1991)
Month to date precipitation 1.30  
Year to date precipitation 34.20  
Snow  
Snow 0.00 in - - ()
Month to date snowfall  
Since 1 July snowfall  
Snow Depth -    
Sea Level Pressure  
Sea Level Pressure 30.20 in    
Wind  
Wind Speed 2 mph (SSE)    
Max Wind Speed 10 mph    
Max Gust Speed 17 mph    
Visibility 10 miles    
Events      
T = Trace of Precipitation, MM = Missing Value Source: NWS Daily Summary

Daily Weather History Graph

Daily Weather History Graph

Search for Another Location

Airport or City:

Trip Planner

Search our weather history database for the weather conditions in past years. The results will help you decide how hot, cold, wet, or windy it might be!

Date:

Astronomy

Dec. 18, 2013 Rise Set
Actual Time 7:17 AM CST 5:31 PM CST
Civil Twilight 6:51 AM CST 5:57 PM CST
Nautical Twilight 6:21 AM CST 6:27 PM CST
Astronomical Twilight 5:52 AM CST 6:56 PM CST
Moon 6:58 PM CST (12/18) 8:03 AM CST (12/18)
Length of Visible Light 11h 06m
Length of Day
10h 13m
Full, 98% of the Moon is Illuminated
Dec 18
Full
Dec 25
Last Quarter
Jan 1
New
Jan 7
First Quarter
Jan 15
Full

Hourly Weather History & Observations

Time (CST) Temp. Dew Point Humidity Pressure Visibility Wind Dir Wind Speed Gust Speed Precip Events Conditions
12:15 AM 46.0 °F 38.7 °F 75% 30.27 in 10.0 mi Calm Calm - N/A   Clear
12:35 AM 46.2 °F 37.6 °F 72% 30.27 in 10.0 mi Calm Calm - N/A   Clear
12:55 AM 42.3 °F 36.3 °F 79% 30.27 in 10.0 mi Calm Calm - N/A   Clear
1:15 AM 42.8 °F 36.3 °F 78% 30.27 in 10.0 mi Calm Calm - N/A   Clear
1:35 AM 42.4 °F 36.1 °F 78% 30.26 in 10.0 mi Calm Calm - N/A   Clear
1:55 AM 42.1 °F 36.3 °F 80% 30.26 in 10.0 mi Calm Calm - N/A   Clear
2:15 AM 41.0 °F 35.6 °F 81% 30.26 in 10.0 mi Calm Calm - N/A   Clear
2:35 AM 40.6 °F 35.1 °F 80% 30.26 in 10.0 mi Calm Calm - N/A   Clear
2:55 AM 40.6 °F 35.4 °F 82% 30.26 in 10.0 mi Calm Calm - N/A   Clear
3:15 AM 40.5 °F 35.2 °F 82% 30.26 in 10.0 mi Calm Calm - N/A   Clear
3:35 AM 40.1 °F 34.7 °F 81% 30.27 in 10.0 mi Calm Calm - N/A   Clear
3:55 AM 40.1 °F 34.9 °F 82% 30.27 in 10.0 mi Calm Calm - N/A   Clear
4:15 AM 39.6 °F 34.7 °F 83% 30.27 in 10.0 mi Calm Calm - N/A   Clear
4:35 AM 39.7 °F 34.7 °F 82% 30.27 in 10.0 mi Calm Calm - N/A   Clear
4:55 AM 39.4 °F 34.7 °F 83% 30.26 in 10.0 mi Calm Calm - N/A   Clear
5:15 AM 38.8 °F 33.8 °F 82% 30.26 in 10.0 mi Calm Calm - N/A   Clear
5:35 AM 38.3 °F 33.4 °F 83% 30.26 in 7.0 mi Calm Calm - N/A   Clear
5:55 AM 38.3 °F 33.6 °F 83% 30.26 in 10.0 mi Calm Calm - N/A   Clear
6:15 AM 37.2 °F 32.4 °F 83% 30.27 in 10.0 mi Calm Calm - N/A   Clear
6:35 AM 38.1 °F 33.1 °F 82% 30.27 in 10.0 mi Calm Calm - N/A   Clear
6:55 AM 37.9 °F 33.1 °F 83% 30.27 in 7.0 mi Calm Calm - N/A   Clear
7:15 AM 37.9 °F 33.1 °F 83% 30.27 in 7.0 mi Calm Calm - N/A   Clear
7:35 AM 37.9 °F 33.1 °F 83% 30.28 in 7.0 mi Calm Calm - N/A   Clear
7:55 AM 38.3 °F 33.3 °F 82% 30.28 in 10.0 mi Calm Calm - N/A   Clear
8:15 AM 40.5 °F 35.6 °F 83% 30.28 in 7.0 mi Calm Calm - N/A   Clear
8:35 AM 43.7 °F 38.7 °F 82% 30.28 in 7.0 mi Calm Calm - N/A   Clear
8:55 AM 47.5 °F 41.5 °F 80% 30.28 in 5.0 mi Calm Calm - N/A   Haze
9:15 AM 50.4 °F 43.0 °F 76% 30.29 in 7.0 mi Calm Calm - N/A   Clear
9:35 AM 52.7 °F 44.6 °F 74% 30.29 in 10.0 mi Calm Calm - N/A   Clear
9:55 AM 55.4 °F 46.2 °F 71% 30.29 in 10.0 mi Calm Calm - N/A   Clear
10:15 AM 58.5 °F 47.5 °F 67% 30.29 in 10.0 mi Calm Calm - N/A   Clear
10:35 AM 61.0 °F 48.2 °F 63% 30.29 in 10.0 mi Calm Calm - N/A   Clear
10:55 AM 63.5 °F 49.3 °F 60% 30.27 in 10.0 mi Calm Calm - N/A   Clear
11:15 AM 66.4 °F 47.5 °F 51% 30.27 in 10.0 mi South 6.9 mph - N/A   Clear
11:35 AM 67.3 °F 47.7 °F 49% 30.26 in 10.0 mi South 5.8 mph - N/A   Clear
11:55 AM 68.2 °F 47.5 °F 47% 30.26 in 10.0 mi SSE 4.6 mph - N/A   Clear
12:15 PM 68.9 °F 45.3 °F 43% 30.24 in 10.0 mi South 9.2 mph - N/A   Clear
12:35 PM 68.7 °F 43.5 °F 40% 30.23 in 10.0 mi South 5.8 mph - N/A   Clear
12:55 PM 69.8 °F 39.9 °F 34% 30.21 in 10.0 mi SSW 6.9 mph - N/A   Scattered Clouds
1:15 PM 70.5 °F 38.7 °F 31% 30.19 in 10.0 mi South 6.9 mph - N/A   Scattered Clouds
1:35 PM 70.7 °F 42.4 °F 36% 30.18 in 10.0 mi South 9.2 mph - N/A   Scattered Clouds
1:55 PM 70.7 °F 43.2 °F 37% 30.17 in 10.0 mi South 9.2 mph - N/A   Clear
2:15 PM 71.4 °F 41.7 °F 34% 30.16 in 10.0 mi South 6.9 mph - N/A   Clear
2:35 PM 71.4 °F 40.5 °F 33% 30.15 in 10.0 mi SSE 10.4 mph 17.3 mph N/A   Clear
2:55 PM 71.6 °F 39.6 °F 31% 30.14 in 10.0 mi South 9.2 mph - N/A   Clear
3:15 PM 72.0 °F 41.0 °F 33% 30.14 in 10.0 mi SSW 10.4 mph - N/A   Clear
3:35 PM 71.4 °F 41.5 °F 34% 30.13 in 10.0 mi South 10.4 mph 16.1 mph N/A   Clear
3:55 PM 71.2 °F 43.0 °F 36% 30.13 in 10.0 mi South 6.9 mph - N/A   Clear
4:15 PM 70.9 °F 43.2 °F 37% 30.12 in 10.0 mi South 6.9 mph - N/A   Clear
4:35 PM 70.7 °F 43.0 °F 37% 30.12 in 10.0 mi SSE 9.2 mph - N/A   Clear
4:55 PM 69.4 °F 45.0 °F 41% 30.11 in 10.0 mi SSE 6.9 mph - N/A   Clear
5:15 PM 68.2 °F 46.4 °F 46% 30.11 in 10.0 mi SSE 5.8 mph - N/A   Clear
5:35 PM 66.7 °F 47.3 °F 50% 30.11 in 10.0 mi SSE 5.8 mph - N/A   Clear
5:55 PM 65.3 °F 47.8 °F 53% 30.11 in 10.0 mi SSE 4.6 mph - N/A   Clear
6:15 PM 64.0 °F 47.8 °F 56% 30.10 in 10.0 mi SSE 5.8 mph - N/A   Clear
6:35 PM 62.8 °F 48.0 °F 59% 30.10 in 10.0 mi SSE 5.8 mph - N/A   Clear
6:55 PM 62.1 °F 48.2 °F 60% 30.11 in 10.0 mi SSE 5.8 mph - N/A   Clear
7:15 PM 61.3 °F 48.2 °F 62% 30.11 in 10.0 mi SSE 5.8 mph - N/A   Clear
7:35 PM 60.4 °F 48.2 °F 64% 30.11 in 10.0 mi SSE 5.8 mph - N/A   Clear
7:55 PM 60.1 °F 48.4 °F 65% 30.11 in 10.0 mi SSE 6.9 mph - N/A   Clear
8:15 PM 59.9 °F 48.7 °F 67% 30.11 in 10.0 mi SSE 8.1 mph - N/A   Clear
8:35 PM 59.4 °F 49.1 °F 69% 30.11 in 10.0 mi SSE 8.1 mph - N/A   Clear
8:55 PM 58.6 °F 49.1 °F 71% 30.11 in 10.0 mi SSE 8.1 mph - N/A   Clear
9:15 PM 58.5 °F 49.5 °F 72% 30.11 in 10.0 mi SSE 8.1 mph - N/A   Clear
9:35 PM 58.5 °F 50.0 °F 73% 30.11 in 10.0 mi SSE 8.1 mph - N/A   Clear
9:55 PM 57.7 °F 49.6 °F 74% 30.10 in 10.0 mi SSE 8.1 mph - N/A   Clear
10:15 PM 58.3 °F 50.2 °F 74% 30.10 in 10.0 mi SSE 9.2 mph - N/A   Clear
10:35 PM 58.5 °F 50.4 °F 74% 30.10 in 10.0 mi SSE 8.1 mph - N/A   Clear
10:55 PM 58.5 °F 50.5 °F 75% 30.09 in 10.0 mi SSE 8.1 mph - N/A   Clear
11:15 PM 58.5 °F 50.5 °F 75% 30.09 in 10.0 mi SSE 8.1 mph - N/A   Clear
11:35 PM 58.1 °F 50.4 °F 75% 30.08 in 10.0 mi SSE 6.9 mph - N/A   Clear
11:55 PM 57.4 °F 50.0 °F 76% 30.07 in 10.0 mi SSE 5.8 mph - N/A   Clear